sat.trackr.live / text

‹ back to catalog

STARLINK-1351

NORAD 45697 · 2020-035AS

PAYLOAD ACTIVE UNKNOWN

§ Identity

Operator
Country
US
Launch date
2020-06-04
Launch site
AFETR
Launch vehicle
Mass (kg)
RCS (m²)

Purposes: comms

External: N2YO · Heavens-Above · Gunter

§ Orbital elements

Epoch: 2026-09-13T03:47:27.097728Z

Period
91.31 min
Inclination
53.0348°
Eccentricity
0.0005799
Mean motion
15.77076551 rev/d
Perigee alt
334.8 km
Apogee alt
342.6 km
Semi-major
6,716.9 km
B*
3.8893e-4
RAAN
180.0921°
Arg perigee
95.8626°
Mean anomaly
264.3054°
Rev number
34,874

§ Raw data

STARLINK-13511 45697U 20035AS  26256.15795252  .00064541  00000+0  38893-3 0  99912 45697  53.0348 180.0921 0005799  95.8626 264.3054 15.77076551348747

JSON: /api/v1/satellites/45697 · /tle

For live sub-satellite position, see the globe view (requires WebGL).

§ Visibility from observer

Set your observer location to see the next 7 days of passes ≥ 10°. The values pass through the URL so the page stays shareable.

No JS? Fill the form by hand. The geolocation button needs JavaScript.